Regional Weather Roundup
Issued by NWS

Home | Current Version | Previous Version | Graphics & Text | Print | Product List | Glossary On
Versions: 1 2 3 4 5 6 7 8 9 10 11 12 13 14 15 16 17 18 19 20 21 22 23 24 25 26 27 28 29 30 31 32 33 34 35 36 37 38 39 40 41 42 43 44 45 46 47 48 49 50
000
ASUS43 KBIS 112202
RWRND

NORTH DAKOTA REGIONAL WEATHER ROUNDUP
NATIONAL WEATHER SERVICE BISMARCK ND
400 PM CST MON DEC 11 2017

NOTE: "FAIR" INDICATES FEW OR NO CLOUDS BELOW 12,000 FEET WITH NO
SIGNIFICANT WEATHER AND/OR OBSTRUCTIONS TO VISIBILITY.


NDZ001>003-009>011-017-112300-
NORTHWEST NORTH DAKOTA

CITY           SKY/WX    TMP DP  RH WIND       PRES   REMARKS
WILLISTON      CLOUDY    37  28  70 NW9       30.35R
MINOT          PTCLDY    29  20  69 N6        30.30R
MINOT AFB      CLEAR     31  19  62 NW9       30.28S
$$

NDZ018>021-031>035-040>046-112300-
SOUTHWEST NORTH DAKOTA

CITY           SKY/WX    TMP DP  RH WIND       PRES   REMARKS
BISMARCK       CLEAR     34  22  61 N10       30.31R
DICKINSON      CLOUDY    35  30  82 NW12      30.30S
GARRISON         N/A     33  21  61 NW20      30.29R
HETTINGER ARPT CLOUDY    36  28  73 NW20      30.33R
$$

NDZ004>008-012>016-024-026-027-054-112300-
NORTHEAST NORTH DAKOTA

CITY           SKY/WX    TMP DP  RH WIND       PRES   REMARKS
GRAND FORKS    PTCLDY    15   8  73 N18       30.30R WCI  -2
GRND FRKS AFB  CLEAR     16   8  70 N15       30.30R WCI   1
DEVILS LAKE    CLEAR     21  14  74 N9        30.29R WCI  11
$$

NDZ022-023-025-028>030-036>039-047>053-112300-
SOUTHEAST NORTH DAKOTA

CITY           SKY/WX    TMP DP  RH WIND       PRES   REMARKS
FARGO          CLEAR     17  11  77 N23       30.27R WCI  -1
JAMESTOWN      PTCLDY    21  14  74 N16       30.29R WCI   7
$$





USA.gov is the U.S. government's official web portal to all federal, state and local government web resources and services.